When you browse on this site, cookies collect data to enhance your experience and personalize the content and advertising you see.
Visit our Privacy Policy to learn more. By continuing to use the site, you agree to this use of cookies and data.
  • en Suisse
  • Liste des pays
  • À 7 jours
  • Température de l'eau
  • Carte satellitaire
  • Carte météo
  • Widgets météo
  • user-avatar
    Se connecter

    Météo par heure à Vinh

    Ce jour, 23 Juillet, Mardi

    Heure Température Précipitation Vent Pression Humidité
    00:00 +29°C° 0 mm 2 m/s 742 mmHg 74%
    01:00 +28°C° 0 mm 2 m/s 742 mmHg 76%
    02:00 +28°C° 0 mm 2 m/s 741 mmHg 76%
    03:00 +28°C° 0 mm 2 m/s 741 mmHg 76%
    04:00 +28°C° 0 mm 2 m/s 740 mmHg 75%
    05:00 +29°C° 0.1 mm 2 m/s 741 mmHg 75%
    06:00 +29°C° 0.1 mm 2 m/s 741 mmHg 74%
    07:00 +29°C° 0 mm 3 m/s 742 mmHg 75%
    08:00 +30°C° 0.1 mm 2 m/s 742 mmHg 72%
    09:00 +31°C° 0.1 mm 2 m/s 742 mmHg 69%
    10:00 +31°C° 0.1 mm 2 m/s 742 mmHg 66%
    11:00 +32°C° 0 mm 2 m/s 741 mmHg 62%
    12:00 +34°C° 0 mm 3 m/s 741 mmHg 58%
    13:00 +35°C° 0 mm 3 m/s 741 mmHg 54%
    14:00 +35°C° 0 mm 3 m/s 740 mmHg 54%
    15:00 +35°C° 0 mm 3 m/s 740 mmHg 54%
    16:00 +35°C° 0 mm 3 m/s 739 mmHg 55%
    17:00 +34°C° 0 mm 3 m/s 740 mmHg 56%
    18:00 +33°C° 0 mm 3 m/s 740 mmHg 57%
    19:00 +31°C° 0 mm 2 m/s 740 mmHg 58%
    20:00 +31°C° 0 mm 2 m/s 741 mmHg 60%
    21:00 +30°C° 0 mm 2 m/s 741 mmHg 62%
    22:00 +30°C° 0 mm 2 m/s 741 mmHg 64%
    23:00 +30°C° 0 mm 2 m/s 741 mmHg 65%

    Demain, 24 Juillet, Mercredi

    Heure Température Précipitation Vent Pression Humidité
    00:00 +30°C° 0 mm 2 m/s 741 mmHg 67%
    01:00 +30°C° 0 mm 2 m/s 741 mmHg 69%
    02:00 +29°C° 0 mm 2 m/s 741 mmHg 70%
    03:00 +29°C° 0 mm 2 m/s 741 mmHg 70%
    04:00 +29°C° 0 mm 2 m/s 740 mmHg 71%
    05:00 +29°C° 0 mm 2 m/s 741 mmHg 72%
    06:00 +29°C° 0 mm 2 m/s 741 mmHg 72%
    07:00 +29°C° 0 mm 2 m/s 741 mmHg 72%
    08:00 +30°C° 0 mm 2 m/s 742 mmHg 71%
    09:00 +30°C° 0 mm 3 m/s 742 mmHg 69%
    10:00 +30°C° 0 mm 3 m/s 742 mmHg 68%
    11:00 +31°C° 0 mm 3 m/s 742 mmHg 66%
    12:00 +31°C° 0 mm 3 m/s 742 mmHg 64%
    13:00 +33°C° 0 mm 3 m/s 741 mmHg 63%
    14:00 +34°C° 0 mm 3 m/s 741 mmHg 58%
    15:00 +36°C° 0 mm 3 m/s 740 mmHg 52%
    16:00 +37°C° 0 mm 3 m/s 740 mmHg 47%
    17:00 +35°C° 0 mm 3 m/s 740 mmHg 54%
    18:00 +34°C° 0 mm 3 m/s 740 mmHg 60%
    19:00 +31°C° 0 mm 3 m/s 741 mmHg 67%
    20:00 +30°C° 0 mm 3 m/s 741 mmHg 69%
    21:00 +29°C° 0 mm 2 m/s 742 mmHg 71%
    22:00 +29°C° 0 mm 2 m/s 743 mmHg 74%
    23:00 +29°C° 0 mm 2 m/s 743 mmHg 75%

    Après-demain, 25 Juillet, Jeudi

    Heure Température Précipitation Vent Pression Humidité
    00:00 +28°C° 0 mm 2 m/s 742 mmHg 76%
    01:00 +28°C° 0 mm 2 m/s 742 mmHg 77%
    02:00 +28°C° 0 mm 2 m/s 742 mmHg 77%
    03:00 +28°C° 0 mm 2 m/s 742 mmHg 78%
    04:00 +28°C° 0 mm 2 m/s 742 mmHg 78%
    05:00 +28°C° 0 mm 2 m/s 742 mmHg 77%
    06:00 +29°C° 0 mm 2 m/s 743 mmHg 75%
    07:00 +29°C° 0 mm 2 m/s 743 mmHg 73%
    08:00 +31°C° 0 mm 2 m/s 743 mmHg 65%
    09:00 +34°C° 0 mm 2 m/s 744 mmHg 58%
    10:00 +36°C° 0 mm 2 m/s 744 mmHg 50%
    11:00 +37°C° 0 mm 2 m/s 743 mmHg 48%
    12:00 +38°C° 0 mm 2 m/s 743 mmHg 46%
    13:00 +39°C° 0 mm 2 m/s 742 mmHg 44%
    14:00 +38°C° 0 mm 2 m/s 741 mmHg 45%
    15:00 +38°C° 0 mm 2 m/s 741 mmHg 47%
    16:00 +38°C° 0 mm 3 m/s 740 mmHg 48%
    17:00 +36°C° 0 mm 2 m/s 741 mmHg 55%
    18:00 +34°C° 0 mm 2 m/s 741 mmHg 62%
    19:00 +31°C° 0 mm 2 m/s 741 mmHg 69%
    20:00 +31°C° 0 mm 2 m/s 742 mmHg 71%
    21:00 +30°C° 0 mm 2 m/s 743 mmHg 73%
    22:00 +29°C° 0 mm 2 m/s 743 mmHg 76%
    23:00 +29°C° 0.2 mm 2 m/s 743 mmHg 77%

    26 Juillet, Vendredi

    Heure Température Précipitation Vent Pression Humidité
    00:00 +29°C° 0.2 mm 2 m/s 743 mmHg 79%
    01:00 +28°C° 0.2 mm 2 m/s 742 mmHg 80%
    02:00 +28°C° 0 mm 2 m/s 742 mmHg 80%
    03:00 +28°C° 0 mm 2 m/s 742 mmHg 80%
    04:00 +28°C° 0 mm 2 m/s 742 mmHg 80%
    05:00 +28°C° 0 mm 2 m/s 742 mmHg 79%
    06:00 +29°C° 0 mm 2 m/s 742 mmHg 78%
    07:00 +29°C° 0 mm 1 m/s 742 mmHg 77%
    08:00 +31°C° 0 mm 2 m/s 743 mmHg 68%
    09:00 +35°C° 0 mm 2 m/s 743 mmHg 60%
    10:00 +37°C° 0 mm 2 m/s 743 mmHg 52%
    11:00 +37°C° 0 mm 2 m/s 743 mmHg 50%
    12:00 +38°C° 0 mm 2 m/s 742 mmHg 48%
    13:00 +39°C° 0 mm 2 m/s 741 mmHg 46%
    14:00 +38°C° 0 mm 2 m/s 741 mmHg 48%
    15:00 +38°C° 0 mm 2 m/s 740 mmHg 50%
    16:00 +37°C° 0 mm 3 m/s 739 mmHg 51%
    17:00 +35°C° 0 mm 2 m/s 740 mmHg 58%
    18:00 +34°C° 0 mm 2 m/s 740 mmHg 64%
    19:00 +31°C° 0 mm 2 m/s 740 mmHg 70%
    20:00 +30°C° 0.2 mm 2 m/s 741 mmHg 73%
    21:00 +30°C° 0.2 mm 2 m/s 742 mmHg 75%
    22:00 +29°C° 0.2 mm 2 m/s 742 mmHg 77%
    23:00 +29°C° 0 mm 2 m/s 742 mmHg 78%

    27 Juillet, Samedi

    Heure Température Précipitation Vent Pression Humidité
    00:00 +29°C° 0 mm 2 m/s 742 mmHg 78%
    01:00 +29°C° 0 mm 2 m/s 741 mmHg 78%
    02:00 +29°C° 0 mm 2 m/s 741 mmHg 79%
    03:00 +29°C° 0 mm 1 m/s 741 mmHg 79%
    04:00 +28°C° 0 mm 1 m/s 741 mmHg 80%
    05:00 +29°C° 0 mm 1 m/s 741 mmHg 79%
    06:00 +29°C° 0 mm 1 m/s 741 mmHg 77%
    07:00 +30°C° 0 mm 1 m/s 742 mmHg 76%
    08:00 +32°C° 0.1 mm 1 m/s 742 mmHg 69%
    09:00 +34°C° 0.1 mm 1 m/s 742 mmHg 61%
    10:00 +36°C° 0.1 mm 1 m/s 742 mmHg 53%
    11:00 +37°C° 0.1 mm 1 m/s 742 mmHg 51%
    12:00 +39°C° 0.1 mm 1 m/s 741 mmHg 49%
    13:00 +39°C° 0.1 mm 1 m/s 741 mmHg 46%
    14:00 +39°C° 0.1 mm 2 m/s 740 mmHg 48%
    15:00 +38°C° 0.1 mm 2 m/s 740 mmHg 50%
    16:00 +38°C° 0.1 mm 2 m/s 739 mmHg 51%
    17:00 +36°C° 0.1 mm 2 m/s 740 mmHg 58%
    18:00 +34°C° 0.1 mm 2 m/s 740 mmHg 65%
    19:00 +32°C° 0.1 mm 2 m/s 741 mmHg 72%
    20:00 +31°C° 0.5 mm 2 m/s 741 mmHg 75%
    21:00 +30°C° 0.5 mm 2 m/s 742 mmHg 79%
    22:00 +29°C° 0.5 mm 2 m/s 742 mmHg 82%
    23:00 +29°C° 0 mm 2 m/s 742 mmHg 83%

    28 Juillet, Dimanche

    Heure Température Précipitation Vent Pression Humidité
    00:00 +29°C° 0 mm 1 m/s 742 mmHg 83%
    01:00 +28°C° 0 mm 1 m/s 742 mmHg 84%
    02:00 +28°C° 0 mm 1 m/s 741 mmHg 84%
    03:00 +28°C° 0 mm 1 m/s 741 mmHg 84%
    04:00 +28°C° 0 mm 1 m/s 741 mmHg 85%
    05:00 +28°C° 0 mm 1 m/s 742 mmHg 83%
    06:00 +29°C° 0 mm 1 m/s 742 mmHg 81%
    07:00 +29°C° 0 mm 1 m/s 742 mmHg 79%
    08:00 +32°C° 0 mm 1 m/s 743 mmHg 69%
    09:00 +34°C° 0 mm 1 m/s 743 mmHg 60%
    10:00 +37°C° 0 mm 1 m/s 743 mmHg 51%
    11:00 +36°C° 0.7 mm 1 m/s 743 mmHg 53%
    12:00 +36°C° 0.7 mm 1 m/s 742 mmHg 56%
    13:00 +37°C° 0.7 mm 2 m/s 742 mmHg 59%
    14:00 +35°C° 1.1 mm 1 m/s 741 mmHg 64%
    15:00 +34°C° 1.1 mm 1 m/s 741 mmHg 69%
    16:00 +33°C° 1.1 mm 1 m/s 740 mmHg 73%
    17:00 +32°C° 0.7 mm 1 m/s 740 mmHg 78%
    18:00 +31°C° 0.7 mm 1 m/s 741 mmHg 82%
    19:00 +29°C° 0.7 mm 1 m/s 741 mmHg 87%
    20:00 +29°C° 0.7 mm 1 m/s 742 mmHg 88%
    21:00 +28°C° 0.7 mm 2 m/s 742 mmHg 90%
    22:00 +27°C° 0.7 mm 2 m/s 743 mmHg 92%
    23:00 +27°C° 0.7 mm 2 m/s 743 mmHg 93%
    Voir plus